Manistique, MI

2:13 AM EDT on July 25, 2017 (GMT -0400)
Schoolcraft County

Weather History for KISQ - November, 2012

Change the Weather History Date:

Thursday, November 1, 2012

  Actual Average Record
Temperature  
Mean Temperature 38 °F -  
Max Temperature 44 °F 48 °F 67 °F (2016)
Min Temperature 33 °F 34 °F 14 °F (1984)
Degree Days  
Heating Degree Days 26    
Moisture  
Dew Point 30 °F    
Average Humidity 74    
Maximum Humidity 87    
Minimum Humidity 53    
Precipitation  
Precipitation 0.00 in - - ()
Sea Level Pressure  
Sea Level Pressure 29.74 in    
Wind  
Wind Speed 13 mph (NW)    
Max Wind Speed 24 mph    
Max Gust Speed 37 mph    
Visibility 10 miles    
Events Rain    
Averages and records for this station are not official NWS values.
T = Trace of Precipitation, MM = Missing Value Source: NWS Daily Summary

Daily Weather History Graph

Daily Weather History Graph

Search for Another Location

Airport or City:

Trip Planner

Search our weather history database for the weather conditions in past years. The results will help you decide how hot, cold, wet, or windy it might be!

Date:

Astronomy

Nov. 01, 2012 Rise Set
Actual Time 8:25 AM EDT 6:29 PM EDT
Civil Twilight 7:54 AM EDT 7:01 PM EDT
Nautical Twilight 7:19 AM EDT 7:36 PM EDT
Astronomical Twilight 6:44 AM EDT 8:11 PM EDT
Moon 8:19 PM EDT (11/1) 11:04 AM EDT (11/1)
Length of Visible Light 11h 06m
Length of Day
10h 04m
Waning Gibbous, 93% of the Moon is Illuminated
Nov 1
Waning Gibbous
Nov 6
Last Quarter
Nov 13
New
Nov 20
First Quarter
Nov 28
Full

Hourly Weather History & Observations

Time (EDT) Temp. Windchill Dew Point Humidity Pressure Visibility Wind Dir Wind Speed Gust Speed Precip Events Conditions
12:14 AM 37.4 °F 28.9 °F 33.8 °F 87% 29.71 in 10.0 mi NW 13.8 mph 21.9 mph N/A   Overcast
12:35 AM 37.4 °F 28.9 °F 33.8 °F 87% 29.71 in 10.0 mi NW 13.8 mph 19.6 mph N/A   Overcast
1:15 AM 37.4 °F 30.3 °F 33.8 °F 87% 29.71 in 10.0 mi NW 10.4 mph 18.4 mph N/A   Overcast
1:34 AM 37.4 °F 30.3 °F 33.8 °F 87% 29.70 in 10.0 mi NW 10.4 mph 17.3 mph N/A   Overcast
1:55 AM 37.4 °F 28.9 °F 33.8 °F 87% 29.71 in 10.0 mi NW 13.8 mph 21.9 mph N/A   Overcast
2:15 AM 37.4 °F 28.9 °F 33.8 °F 87% 29.70 in 10.0 mi NW 13.8 mph 20.7 mph N/A   Overcast
2:34 AM 37.4 °F 29.8 °F 33.8 °F 87% 29.71 in 10.0 mi NW 11.5 mph 20.7 mph N/A   Overcast
2:55 AM 37.4 °F 28.5 °F 33.8 °F 87% 29.71 in 10.0 mi NW 15.0 mph 18.4 mph N/A   Overcast
3:14 AM 37.4 °F 28.5 °F 33.8 °F 87% 29.71 in 10.0 mi NW 15.0 mph 19.6 mph N/A   Overcast
3:34 AM 37.4 °F 29.8 °F 33.8 °F 87% 29.71 in 10.0 mi NW 11.5 mph - N/A   Light Drizzle
3:55 AM 37.4 °F 30.8 °F 33.8 °F 87% 29.70 in 10.0 mi NW 9.2 mph 17.3 mph N/A   Drizzle
4:14 AM 37.4 °F 30.8 °F 33.8 °F 87% 29.70 in 10.0 mi NW 9.2 mph 16.1 mph N/A   Light Drizzle
4:35 AM 37.4 °F 30.8 °F 32.0 °F 81% 29.70 in 10.0 mi NNW 9.2 mph - N/A   Light Drizzle
4:55 AM 37.4 °F 29.8 °F 32.0 °F 81% 29.70 in 10.0 mi NW 11.5 mph 17.3 mph N/A   Light Drizzle
5:14 AM 35.6 °F 29.9 °F 32.0 °F 87% 29.70 in 10.0 mi NW 6.9 mph - N/A   Light Drizzle
5:35 AM 37.4 °F 29.3 °F 32.0 °F 81% 29.70 in 10.0 mi NW 12.7 mph 19.6 mph N/A Rain Light Rain
6:15 AM 37.4 °F 30.3 °F 32.0 °F 81% 29.70 in 10.0 mi NW 10.4 mph - N/A   Overcast
6:35 AM 37.4 °F 30.3 °F 32.0 °F 81% 29.70 in 10.0 mi NW 10.4 mph 18.4 mph N/A   Overcast
6:54 AM 37.4 °F 29.8 °F 32.0 °F 81% 29.70 in 10.0 mi NW 11.5 mph 17.3 mph N/A   Overcast
7:15 AM 37.4 °F 28.9 °F 30.2 °F 75% 29.70 in 10.0 mi NW 13.8 mph 21.9 mph N/A   Overcast
7:34 AM 37.4 °F 28.9 °F 30.2 °F 75% 29.70 in 10.0 mi NW 13.8 mph 20.7 mph N/A   Overcast
7:54 AM 37.4 °F 29.8 °F 30.2 °F 75% 29.70 in 10.0 mi NW 11.5 mph 20.7 mph N/A   Overcast
8:15 AM 37.4 °F 29.8 °F 30.2 °F 75% 29.71 in 10.0 mi NW 11.5 mph 17.3 mph N/A   Overcast
8:34 AM 37.4 °F 29.8 °F 30.2 °F 75% 29.71 in 10.0 mi NW 11.5 mph - N/A   Overcast
8:55 AM 35.6 °F 28.6 °F 28.4 °F 75% 29.71 in 10.0 mi NW 9.2 mph - N/A   Mostly Cloudy
9:35 AM 37.4 °F 30.8 °F 30.2 °F 75% 29.72 in 10.0 mi NW 9.2 mph 17.3 mph N/A   Mostly Cloudy
10:15 AM 39.2 °F 32.0 °F 30.2 °F 70% 29.72 in 10.0 mi NW 11.5 mph 18.4 mph N/A   Mostly Cloudy
10:35 AM 39.2 °F 30.8 °F 28.4 °F 65% 29.72 in 10.0 mi NNW 15.0 mph 21.9 mph N/A   Scattered Clouds
10:54 AM 39.2 °F 29.6 °F 28.4 °F 65% 29.72 in 10.0 mi NNW 19.6 mph 28.8 mph N/A   Scattered Clouds
11:15 AM 39.2 °F 31.2 °F 28.4 °F 65% 29.72 in 10.0 mi NNW 13.8 mph 25.3 mph N/A   Mostly Cloudy
11:34 AM 39.2 °F 30.2 °F 28.4 °F 65% 29.73 in 10.0 mi NW 17.3 mph 26.5 mph N/A   Overcast
11:55 AM 41.0 °F 33.5 °F 28.4 °F 61% 29.73 in 10.0 mi NW 13.8 mph 24.2 mph N/A   Overcast
12:15 PM 42.8 °F 34.0 °F 28.4 °F 57% 29.74 in 10.0 mi NNW 20.7 mph 29.9 mph N/A   Mostly Cloudy
12:34 PM 42.8 °F 33.8 °F 26.6 °F 53% 29.74 in 10.0 mi NW 21.9 mph 31.1 mph N/A   Mostly Cloudy
12:55 PM 42.8 °F 33.8 °F 26.6 °F 53% 29.73 in 10.0 mi NNW 21.9 mph 32.2 mph N/A   Mostly Cloudy
1:14 PM 42.8 °F 34.0 °F 28.4 °F 57% 29.73 in 10.0 mi NW 20.7 mph 27.6 mph N/A   Mostly Cloudy
1:34 PM 42.8 °F 33.3 °F 26.6 °F 53% 29.73 in 10.0 mi NW 24.2 mph 36.8 mph N/A   Overcast
2:14 PM 44.6 °F 37.2 °F 28.4 °F 53% 29.73 in 10.0 mi NW 17.3 mph 29.9 mph N/A   Overcast
2:35 PM 42.8 °F 33.5 °F 28.4 °F 57% 29.72 in 10.0 mi NW 23.0 mph 28.8 mph N/A   Mostly Cloudy
2:55 PM 41.0 °F 34.3 °F 30.2 °F 65% 29.73 in 10.0 mi NNW 11.5 mph 26.5 mph N/A   Scattered Clouds
3:14 PM 39.2 °F 29.8 °F 28.4 °F 65% 29.73 in 10.0 mi NNW 18.4 mph 31.1 mph N/A   Mostly Cloudy
3:35 PM 37.4 °F 27.2 °F 32.0 °F 81% 29.73 in 7.0 mi NW 19.6 mph 28.8 mph N/A Rain Light Rain
4:34 PM 39.2 °F 30.5 °F 30.2 °F 70% 29.75 in 10.0 mi NW 16.1 mph 24.2 mph N/A   Mostly Cloudy
4:54 PM 39.2 °F 31.6 °F 30.2 °F 70% 29.75 in 10.0 mi NW 12.7 mph 26.5 mph N/A   Overcast
5:15 PM 37.4 °F 28.5 °F 32.0 °F 81% 29.75 in 10.0 mi NW 15.0 mph 26.5 mph N/A Rain Light Rain
5:34 PM 37.4 °F 29.3 °F 30.2 °F 75% 29.76 in 10.0 mi NW 12.7 mph 21.9 mph N/A   Overcast
5:55 PM 37.4 °F 28.2 °F 30.2 °F 75% 29.77 in 10.0 mi NW 16.1 mph 24.2 mph N/A   Overcast
6:14 PM 37.4 °F 28.5 °F 28.4 °F 70% 29.77 in 10.0 mi NW 15.0 mph 23.0 mph N/A   Overcast
6:34 PM 37.4 °F 28.9 °F 28.4 °F 70% 29.78 in 10.0 mi NW 13.8 mph 18.4 mph N/A   Overcast
7:14 PM 37.4 °F 29.3 °F 28.4 °F 70% 29.78 in 10.0 mi NNW 12.7 mph 18.4 mph N/A   Mostly Cloudy
7:35 PM 37.4 °F 29.8 °F 26.6 °F 65% 29.79 in 10.0 mi NW 11.5 mph 18.4 mph N/A   Overcast
7:55 PM 37.4 °F 31.4 °F 26.6 °F 65% 29.79 in 10.0 mi NW 8.1 mph - N/A   Overcast
8:14 PM 37.4 °F 29.3 °F 26.6 °F 65% 29.79 in 10.0 mi NNW 12.7 mph 16.1 mph N/A   Overcast
8:35 PM 37.4 °F 29.3 °F 24.8 °F 60% 29.80 in 10.0 mi NNW 12.7 mph 21.9 mph N/A   Overcast
8:54 PM 37.4 °F 27.5 °F 26.6 °F 65% 29.80 in 10.0 mi NNW 18.4 mph 26.5 mph N/A   Overcast
9:14 PM 37.4 °F 29.3 °F 26.6 °F 65% 29.81 in 10.0 mi NNW 12.7 mph 17.3 mph N/A   Overcast
9:35 PM 37.4 °F 30.3 °F 26.6 °F 65% 29.81 in 10.0 mi NW 10.4 mph 17.3 mph N/A   Overcast
9:54 PM 37.4 °F 29.8 °F 28.4 °F 70% 29.81 in 10.0 mi NNW 11.5 mph 21.9 mph N/A   Overcast
10:15 PM 37.4 °F 29.3 °F 30.2 °F 75% 29.82 in 10.0 mi NNW 12.7 mph 19.6 mph N/A   Overcast
10:34 PM 35.6 °F 27.5 °F 30.2 °F 81% 29.83 in 10.0 mi North 11.5 mph 17.3 mph N/A   Overcast
10:55 PM 35.6 °F 27.5 °F 30.2 °F 81% 29.83 in 10.0 mi NW 11.5 mph - N/A Rain Light Rain
11:14 PM 35.6 °F 28.6 °F 30.2 °F 81% 29.84 in 10.0 mi NNW 9.2 mph - N/A   Light Drizzle
11:35 PM 33.8 °F 26.4 °F 30.2 °F 87% 29.84 in 10.0 mi NNW 9.2 mph - N/A Rain Light Rain
11:54 PM 33.8 °F 27.7 °F 30.2 °F 87% 29.84 in 10.0 mi NNW 6.9 mph - N/A   Light Drizzle